Weather in Swindon

United Kingdom     51°34′20″N   1°47′09″W
temp.,
°C
wind,
m/s
gust,
m/s
humid.,
%
clouds,
%
prec.,
mm/h
press.,
hPa
HPBL,
m
12 april, mon
mon1201:00−2w22914 0.1 102714
04:00−1w2285100 0.0 102744
07:000ssw1298100 1.6 1027139
10:00+2nw239179 0.3 1028410
13:00+5nnw247844 0.7 1030991
16:00+6nw456817 0.1 10301212
19:00+5wnw23815 0.1 103047
22:00+1w118740 0.0 103210
13 april, tue
tue1301:000w11895 0.0 103310
04:00−1nw11905 0.0 103310
07:000n008611 0.0 103410
10:00+6ne11675 0.0 1034410
13:00+9nnw126261 0.0 10331322
16:00+9nw1166100 0.1 1032635
19:00+7wnw117984 0.3 103211
22:00+5w118563 0.0 103310
14 april, wed
wed1401:00+3w118726 0.0 103310
04:00+3nne119045 0.0 103311
07:00+1ne22945 0.0 103321
10:00+7ne34775 0.0 1033526
13:00+10ne346278 0.1 10321320
16:00+10ne556532 0.7 10311355
19:00+7ene59724 0.9 1032367
22:00+1ene38780 0.0 1033120
15 april, thu
thu1501:00−1ene33765 0.0 103438
04:00−2ne33835 0.0 103451
07:00−2ne36935 0.0 1034163
10:00+5ne57665 0.0 1033948
13:00+8ne565394 0.0 10311809
16:00+7ne565863 0.1 10301611
19:00+6ne4875100 0.1 1030346
22:00+2ne411905 0.1 1031274
16 april, fri
fri1601:00−2ene38910 0.1 1031144
04:00−2ne39935 0.0 1031166
07:00−2ne310935 0.0 1031222
10:00+5ne68625 0.0 1031906
13:00+9ne685299 0.0 10301983
16:00+9ne685799 0.0 10291903
19:00+7ne697368 0.1 1029832
22:00+1nne412880 0.0 1030290